Hlavní strana
METAR-TAF:

METAR-TAF

Letiště :

Indianapolis, Indiana, Spojené státy americké

zeměpisná šířka: 40-01-50N, zeměpisná délka: 086-15-05W, výška: 281 m

Aktuální stav počasí

Zpráva byla vytvořena před 13 minutami, v 10:00 UTC
Západní vítr 8 kt
Teplota -3°C
Vlhkost vzduchu 100%
Tlak 1016 hPa
Viditelnost: 16.1 km
Polojasno ve výšce 1000 ft
Zataženo ve výšce 2000 ft

METAR: KTYQ 181000Z AUTO 28008KT 10SM SCT010 OVC020 M03/M03 A3000 RMK AO2 T10281035

Čas: 03:13 (10:13 UTC)


TAF: chybějící

Stav a předpovědi počasí z více než 4 000 letišť (zprávy METAR a TAF).

Červené a žluté tečky na mapě představují dostupné meteorologické stanice.

Když kurzor umístíte na tečku, zobrazí se název stanice.

Pak kliknutím zobrazíte stav a předpověď počasí.

Chcete-li změnit mapu, kliknutím na zelené tlačítko se znaménkem +mapu přiblížíte, kliknutím na zelené tlačítko se znaménkem – mapu oddálíte a kliknutím na zelené šipky přejdete na sousední mapy.


METAR-TAF: